GFSSW_con_sbcape_159.txt.gz
CAPE
89 108 92 106 98 85 63 23 0 0 0 0 0 0 0 10 7 1 0 0 0 0 0 0 0 0 0 0 0 0 0 0 0 0 0 0 0 0 0 0 0 0 0 0 0
118 148 101 112 117 113 101 80 42 5 0 0 0 0 0 16 1 3 0 0 0 0 0 0 0 0 0 0 0 0 0 0 0 0 0 0 0 0 0 0 0 0 0 0 0
132 152 109 106 131 120 117 101 92 68 30 9 0 0 14 32 0 0 0 0 0 0 0 0 0 0 0 0 0 0 0 0 0 0 0 0 0 0 0 0 0 0 0 0 0
110 137 122 118 130 129 118 115 113 112 67 26 0 0 28 33 0 0 1 4 0 0 0 0 0 0 0 0 0 0 0 0 0 0 0 0 0 0 0 0 0 0 0 0 0
89 104 117 101 132 145 135 112 118 120 112 80 24 28 52 28 0 0 7 6 0 0 0 0 0 0 0 0 0 0 0 0 0 0 0 0 0 0 0 0 0 0 0 0 0
83 67 102 129 163 135 156 121 117 129 140 111 104 72 45 5 0 0 12 9 0 0 0 0 0 0 0 0 0 0 0 0 0 0 0 0 0 0 0 0 0 0 0 0 0
60 94 93 112 159 194 186 179 99 139 153 142 115 19 14 0 0 0 0 15 0 0 0 0 0 0 0 0 0 0 0 0 0 0 0 0 0 0 0 0 0 0 0 0 0
43 40 85 121 136 181 229 230 137 120 186 180 109 23 1 0 0 0 0 47 8 2 5 0 0 0 0 0 0 0 0 0 0 0 0 0 0 0 0 0 0 0 0 0 0
69 50 74 71 109 162 230 250 159 181 206 102 14 1 0 0 0 0 0 52 26 5 14 0 16 17 0 1 0 0 0 0 0 0 0 0 0 0 0 0 0 0 0 0 0
115 117 74 104 91 129 159 182 196 196 28 2 1 2 0 0 0 0 0 47 30 18 44 20 36 12 4 3 0 0 0 0 0 0 0 0 0 0 0 0 0 0 0 0 0
117 57 67 95 135 157 139 17 65 63 1 1 1 0 0 0 0 0 0 3 6 32 22 42 18 6 0 0 0 0 0 0 0 0 0 0 0 0 0 0 0 0 0 0 0
166 118 69 104 117 176 22 7 0 0 17 0 0 0 0 0 0 0 40 48 52 31 12 17 27 1 1 0 0 0 0 0 0 0 0 0 0 0 0 0 0 0 0 0 0
146 146 127 21 106 119 13 0 0 1 39 10 0 0 0 0 0 0 2 24 16 17 10 1 0 0 0 0 3 0 0 0 0 0 0 0 0 0 0 0 0 0 0 0 0
153 151 116 84 17 13 8 0 0 1 17 23 4 0 0 0 0 0 0 7 26 18 8 3 0 0 0 0 0 0 0 0 0 1 3 0 0 0 0 0 0 0 0 0 0
234 200 136 75 51 33 0 6 0 3 50 1 9 0 0 0 0 0 0 1 17 0 5 0 0 0 2 1 0 0 0 0 0 0 5 1 10 0 0 0 0 0 0 0 0
280 245 128 75 3 1 1 17 18 19 27 6 7 1 0 0 0 2 22 0 0 5 0 0 0 2 0 0 0 0 3 0 15 39 21 0 0 0 0 0 0 0 0 0 0
322 243 139 10 2 0 22 60 13 4 0 1 1 7 0 0 17 28 6 18 9 27 7 0 0 0 0 1 6 30 18 7 31 23 0 0 0 0 0 0 0 0 0 0 0
297 283 132 52 27 27 63 21 18 1 0 0 5 5 11 5 9 11 14 19 8 0 0 6 4 5 0 0 3 9 11 0 0 0 0 0 0 0 0 0 0 0 0 0 0
302 4 0 1 48 5 8 0 0 0 0 0 15 16 0 17 3 23 13 1 0 0 0 0 0 0 0 0 0 1 32 0 0 0 0 0 0 0 0 0 0 0 0 0 0
0 0 0 9 5 4 0 0 0 0 0 0 0 1 1 4 13 30 17 0 0 0 0 0 0 0 0 0 1 0 0 4 6 11 3 0 0 0 0 0 0 0 0 0 0
0 4 0 14 34 8 0 0 0 0 0 0 0 2 2 2 4 3 4 0 0 0 0 0 0 0 0 0 0 0 7 1 0 0 0 0 0 0 0 0 0 0 0 0 0
0 1 0 1 37 43 20 2 1 0 0 0 0 0 0 0 1 1 0 0 0 0 0 0 0 0 0 0 0 0 0 0 0 0 0 0 0 0 0 0 0 0 0 0 0
0 1 9 13 10 2 0 5 3 1 0 2 1 0 0 0 1 1 0 0 0 0 0 0 0 0 0 0 0 0 0 0 0 0 0 0 0 0 0 0 0 0 0 0 0
1 0 0 18 0 0 4 30 15 1 0 0 0 0 0 0 0 0 0 0 0 0 0 3 0 2 0 0 0 0 0 0 0 16 0 0 0 0 0 0 0 0 0 0 0
0 1 0 0 0 3 0 0 0 0 1 0 0 0 0 0 0 0 0 0 0 0 0 4 2 0 0 0 0 0 0 0 8 0 0 0 0 0 0 0 0 0 0 0 0
0 0 0 0 0 4 16 0 0 0 0 0 0 0 0 0 0 0 0 0 0 0 0 0 13 0 0 0 0 0 0 0 0 0 3 0 0 0 0 0 0 0 0 0 0
0 3 1 15 0 0 0 14 4 4 0 0 0 0 0 0 0 0 0 0 0 0 3 11 1 0 0 0 0 0 0 0 0 0 0 0 0 0 0 0 0 0 0 0 0

GFSSW_con_sbcape_162.txt.gz
CAPE
133 120 104 104 92 87 62 13 2 0 0 0 0 0 0 0 0 0 0 0 0 0 0 0 0 0 0 0 0 0 0 0 0 0 0 0 0 0 0 0 0 0 0 0 0
160 141 123 109 103 105 100 58 6 0 0 0 0 0 0 5 0 0 0 0 0 0 0 0 0 0 0 0 0 0 0 0 0 0 0 0 0 0 0 0 0 0 0 0 0
158 167 142 121 112 140 128 99 58 13 0 0 0 0 0 32 0 0 0 0 0 0 0 0 0 0 0 0 0 0 0 0 0 0 0 0 0 0 0 0 0 0 0 0 0
127 180 141 145 111 128 134 135 102 55 13 0 0 0 0 30 0 0 0 0 0 0 0 0 0 0 0 0 0 0 0 0 0 0 0 0 0 0 0 0 0 0 0 0 0
119 118 132 153 87 60 130 124 123 94 68 27 0 0 25 12 0 0 7 13 0 0 0 0 0 0 0 0 0 0 0 0 0 0 0 0 0 0 0 0 0 0 0 0 0
110 96 100 138 154 32 130 126 120 116 117 100 54 26 11 0 0 0 15 11 0 0 0 0 0 0 0 0 0 0 0 0 0 0 0 0 0 0 0 0 0 0 0 0 0
68 108 97 97 179 159 146 154 117 130 143 130 82 1 6 0 0 0 0 21 3 0 1 0 0 0 0 0 0 0 0 0 0 0 0 0 0 0 0 0 0 0 0 0 0
57 55 88 123 143 236 228 192 162 107 144 146 107 10 0 0 0 0 0 68 18 1 19 7 0 0 0 0 0 0 0 0 0 0 0 0 0 0 0 0 0 0 0 0 0
72 67 63 116 148 197 204 185 171 225 126 107 21 3 0 0 0 0 0 62 62 16 39 28 46 24 8 0 0 2 0 0 0 0 0 0 0 0 0 0 0 0 0 0 0
143 104 87 62 131 160 205 184 164 234 28 2 16 0 0 0 0 0 0 22 63 56 36 35 64 30 24 10 0 0 0 0 0 0 0 0 0 0 0 0 0 0 0 0 0
170 161 126 102 130 189 228 188 165 116 14 2 18 0 0 0 0 0 0 65 85 61 28 33 32 13 9 1 0 0 0 0 0 0 0 0 0 0 0 0 0 0 0 0 0
137 157 123 118 149 224 139 17 0 9 23 0 1 0 0 0 0 0 0 48 60 34 38 42 22 0 0 0 0 0 0 0 0 0 0 0 0 0 0 0 0 0 0 0 0
173 169 170 154 116 71 23 10 15 27 53 4 1 0 0 0 0 0 0 37 37 39 44 2 0 0 0 0 10 11 2 0 0 0 0 0 0 0 0 0 0 0 0 0 0
213 169 165 158 44 0 16 16 19 65 122 72 11 1 0 0 0 0 0 0 47 27 30 32 5 7 12 8 5 12 1 0 0 0 0 0 0 0 0 0 0 0 0 0 0
235 211 168 125 3 4 3 5 20 29 41 30 18 16 0 0 0 0 0 10 5 24 41 5 12 0 16 15 10 7 0 0 0 8 14 7 4 0 0 0 0 0 0 0 0
279 280 215 136 55 13 12 0 3 45 45 45 4 1 4 4 0 8 4 20 12 37 11 8 0 16 5 2 0 0 4 0 13 28 32 1 2 0 0 0 0 0 0 0 0
314 336 169 69 16 0 0 1 0 15 0 0 1 2 10 7 27 17 13 38 12 20 17 18 10 1 0 10 7 36 41 18 43 44 3 0 1 0 0 0 0 0 0 0 0
307 302 96 67 66 2 2 0 0 2 7 0 5 30 14 7 11 13 12 20 15 0 0 13 15 16 10 10 6 37 17 1 0 4 0 0 0 0 0 0 0 0 0 0 0
298 177 82 62 75 21 3 2 0 2 0 7 13 11 5 15 9 39 27 9 0 0 0 2 1 0 0 0 4 27 55 2 0 0 0 0 0 0 0 0 0 0 0 0 0
138 95 55 83 76 42 2 2 5 0 0 5 3 5 13 14 43 22 51 1 9 0 0 0 0 0 0 1 5 9 2 15 35 30 16 0 0 0 0 0 0 0 0 0 0
113 28 6 97 71 12 13 12 6 2 1 13 1 6 21 10 4 8 3 0 1 0 0 0 0 0 0 9 3 0 29 24 30 23 6 0 0 0 0 0 0 0 0 0 0
17 9 0 117 44 39 5 9 16 1 9 0 0 3 0 5 1 8 7 0 0 0 0 0 0 0 2 0 0 21 0 5 1 0 4 2 0 0 0 0 0 0 0 0 0
12 56 49 76 9 21 29 11 2 2 25 6 0 0 0 5 14 9 0 0 0 0 3 2 0 23 6 0 0 1 20 16 14 1 10 8 0 0 0 0 0 0 0 0 0
19 11 9 32 3 0 0 1 8 0 2 8 7 0 3 43 13 16 2 0 0 5 3 2 14 1 8 0 0 0 1 11 40 47 0 6 0 0 0 0 0 0 0 0 0
1 0 0 11 2 27 3 0 0 13 0 0 8 0 17 29 17 9 26 0 0 1 26 39 49 18 1 0 0 0 3 53 99 8 57 0 1 0 0 0 0 0 0 0 0
0 1 6 0 0 3 10 6 0 0 0 2 23 3 21 43 38 2 2 0 0 0 81 27 53 11 0 0 0 0 0 18 20 27 72 16 7 0 0 0 0 0 0 0 0
1 4 1 1 1 6 4 0 0 0 0 0 4 2 10 17 28 31 3 10 21 39 128 122 88 25 24 0 19 11 0 0 0 10 0 26 0 0 0 0 0 0 0 0 0

GFSSW_con_sbcape_165.txt.gz
CAPE
95 122 105 103 122 109 73 30 12 0 0 0 0 0 0 0 0 0 0 0 0 0 0 0 0 0 0 0 0 0 0 0 0 0 0 0 0 0 0 0 0 0 0 0 8
133 146 151 121 113 120 126 75 41 23 0 0 0 0 0 0 0 0 0 0 0 0 0 0 0 0 0 0 0 0 0 0 0 0 0 0 0 0 0 0 0 0 0 0 34
186 164 148 175 113 117 129 101 62 39 0 0 0 0 0 0 0 0 0 0 0 0 0 0 0 0 0 0 0 0 0 0 0 0 0 0 0 0 0 0 0 0 0 0 0
171 191 179 159 164 100 158 113 100 64 16 13 0 0 0 1 0 0 0 0 0 0 0 0 0 0 0 0 0 0 0 0 0 0 0 0 0 0 0 0 0 0 0 0 0
160 176 200 163 162 119 132 149 134 69 69 34 24 10 10 0 0 0 0 0 0 0 0 0 0 0 0 0 0 0 0 0 0 0 0 0 0 0 0 0 0 0 0 0 0
154 138 145 187 191 147 109 144 145 136 88 81 37 30 2 0 0 0 0 0 0 0 0 0 0 0 0 0 0 0 0 0 0 0 0 0 0 0 0 0 0 0 0 0 0
153 133 127 134 177 127 25 78 138 151 136 69 45 1 0 0 0 0 0 0 0 0 0 1 1 0 0 0 0 0 0 0 0 0 0 0 0 0 0 0 0 0 0 0 0
130 110 103 117 135 172 106 9 128 116 149 116 110 0 0 0 0 0 0 0 0 1 10 22 0 0 0 0 0 0 0 0 0 0 0 0 0 0 0 0 0 0 0 0 0
118 74 65 110 123 152 171 131 43 156 123 103 24 2 0 0 0 0 0 1 28 11 21 25 34 0 2 0 0 0 0 0 0 0 0 0 0 0 0 0 0 0 0 0 0
136 88 42 28 139 143 204 187 141 136 34 3 10 2 0 0 0 0 0 7 41 15 34 20 20 12 12 0 0 0 0 0 0 0 0 0 0 0 0 0 0 0 0 0 0
169 123 58 34 53 202 232 152 110 126 44 4 0 0 0 0 0 0 0 57 65 48 8 16 22 17 0 0 0 0 0 0 0 0 0 0 0 0 0 0 0 0 0 0 0
189 144 96 17 0 198 231 43 7 33 9 9 0 0 0 0 0 0 0 32 47 46 19 28 17 1 1 0 0 0 0 0 0 0 0 0 0 0 0 0 0 0 0 0 0
227 194 155 119 4 111 138 43 120 115 86 7 8 2 0 0 0 0 0 11 10 30 36 23 1 2 6 4 6 2 0 0 0 0 0 0 0 0 0 0 0 0 0 0 0
253 234 139 121 36 33 0 16 108 179 60 69 25 2 0 0 0 0 0 0 10 9 12 20 8 0 10 13 12 5 0 0 0 3 0 0 0 0 0 0 0 0 0 0 0
265 240 231 136 22 11 1 0 158 146 71 58 31 6 0 0 0 0 0 1 0 0 14 0 0 12 11 6 9 5 14 14 12 22 14 0 3 0 0 0 0 0 0 0 0
324 314 252 153 71 15 0 15 29 32 38 65 18 9 17 17 34 6 0 16 5 17 11 5 0 24 14 30 29 28 29 29 28 32 13 0 0 0 0 0 0 0 0 0 0
319 300 247 125 30 68 48 9 0 8 6 3 5 19 11 21 52 8 15 32 8 29 16 23 23 12 0 33 31 51 43 20 24 33 0 0 0 0 0 0 0 0 0 0 0
266 404 180 93 93 61 19 2 4 1 5 6 10 20 18 19 54 33 17 25 7 0 0 8 7 24 9 10 4 9 5 1 0 0 0 0 0 0 0 0 0 0 0 0 0
243 328 149 124 99 85 0 0 18 0 0 10 11 23 18 32 13 50 26 10 0 0 0 0 5 0 5 0 5 19 54 1 7 0 0 0 0 0 0 0 0 0 0 0 0
135 105 72 72 47 0 1 5 10 8 4 38 37 6 26 16 32 34 30 12 13 1 0 0 4 0 2 12 12 11 7 33 41 17 6 0 0 0 0 0 0 0 0 0 0
105 23 79 105 20 2 11 17 5 2 8 5 29 38 8 8 14 29 15 2 8 12 7 0 0 0 3 13 1 11 15 33 26 44 13 1 0 0 0 0 0 0 0 0 0
43 41 62 11 15 27 8 5 0 6 2 3 10 36 33 14 18 38 9 0 0 2 4 3 10 18 0 0 0 37 3 23 6 0 11 10 1 0 0 0 0 0 0 0 0
26 39 45 42 24 21 31 1 5 1 1 11 18 3 29 18 16 38 3 3 0 4 9 17 4 32 6 6 0 2 4 19 29 21 7 63 0 0 0 0 0 0 0 0 0
80 19 46 42 34 63 4 1 3 0 7 5 34 6 7 63 61 57 63 46 12 35 16 44 11 1 11 0 1 0 1 33 52 54 0 8 0 0 0 0 0 0 0 0 0
15 11 12 13 33 7 32 2 0 0 3 29 4 14 10 87 98 47 88 39 1 15 119 87 8 25 0 3 49 1 7 24 97 23 57 0 14 0 0 0 0 0 0 0 0
3 1 1 2 8 20 27 1 0 0 71 28 0 0 0 13 41 26 16 18 2 5 143 75 29 37 1 0 24 38 38 10 1 18 82 35 28 0 0 0 0 0 0 0 0
5 1 16 12 14 20 18 7 0 0 0 0 0 0 0 0 12 93 141 182 78 79 154 152 62 61 72 5 37 76 11 0 2 7 0 26 0 0 0 0 0 0 0 0 0

GFSSW_con_sbcape_168.txt.gz
CAPE
77 129 122 94 116 113 48 27 3 0 0 0 0 0 0 0 0 0 0 0 0 0 0 0 0 0 0 0 0 0 0 0 0 0 0 0 0 0 0 0 0 0 0 0 0
92 126 127 128 124 126 107 53 28 11 0 0 0 0 0 0 0 0 0 0 0 0 0 0 0 0 0 0 0 0 0 0 1 0 0 0 0 0 0 0 0 0 0 0 0
138 160 173 194 156 134 135 107 59 22 0 0 0 0 0 0 0 0 0 0 0 0 0 0 0 0 0 0 0 0 0 0 0 0 0 0 0 0 0 0 0 0 0 0 0
151 173 207 184 232 152 154 152 100 63 14 0 0 0 0 0 0 0 0 0 0 0 0 0 0 0 0 0 0 0 0 0 0 0 0 0 0 0 0 0 0 0 0 0 0
127 154 178 209 273 250 155 168 132 106 57 16 0 0 0 0 0 0 0 0 0 0 0 0 0 0 0 0 0 0 0 0 0 0 0 0 0 0 0 0 0 0 0 0 0
135 146 150 172 190 280 242 160 189 133 109 67 0 0 1 0 0 0 0 0 0 0 0 0 0 0 0 0 0 0 0 0 0 0 0 0 0 0 0 0 0 0 0 0 0
131 136 148 138 204 219 171 162 167 142 123 87 13 0 0 0 0 0 0 0 0 0 0 0 0 0 0 0 0 0 0 0 0 0 0 0 0 0 0 0 0 0 0 0 0
123 128 161 146 158 206 232 165 130 153 121 111 105 0 0 0 0 0 0 0 0 0 0 1 0 0 0 0 0 0 0 0 0 0 0 0 0 0 0 0 0 0 0 0 0
132 116 89 132 110 156 193 142 23 124 136 112 20 1 0 0 0 0 0 0 0 0 4 0 0 0 0 0 0 0 0 0 0 0 0 0 0 0 0 0 0 0 0 0 0
135 121 77 89 29 149 161 159 51 28 59 3 5 5 0 0 0 0 0 8 12 0 6 0 0 0 0 0 0 0 0 0 0 0 0 0 0 0 0 0 0 0 0 0 0
100 130 78 15 14 35 169 73 48 35 17 15 0 0 0 0 0 0 0 32 21 18 0 4 0 0 0 0 0 0 0 0 0 0 0 0 0 0 0 0 0 0 0 0 0
214 180 99 9 0 2 65 43 4 17 11 3 4 0 0 0 0 0 0 33 47 11 0 4 5 0 0 0 0 0 0 0 0 0 0 0 0 0 0 0 0 0 0 0 0
254 191 123 69 0 0 10 23 91 79 40 28 18 2 0 0 0 0 0 19 7 13 11 6 0 0 0 0 0 0 0 0 0 0 0 0 0 0 0 0 0 0 0 0 0
209 192 114 42 12 4 2 12 15 59 13 15 13 3 0 0 0 0 0 2 10 15 11 24 1 0 0 0 0 1 0 0 0 0 0 0 0 0 0 0 0 0 0 0 0
309 222 245 1 28 1 2 0 0 2 2 17 15 13 0 0 0 0 0 3 0 0 2 0 0 2 3 0 1 0 0 1 0 0 4 0 0 0 0 0 0 0 0 0 0
294 191 155 70 53 44 41 66 57 22 6 38 22 18 12 3 31 0 0 2 0 2 0 0 0 0 1 0 2 17 11 16 21 26 26 0 0 0 0 0 0 0 0 0 0
173 208 61 39 5 51 28 32 1 10 0 3 6 21 5 12 37 3 1 24 1 15 4 1 13 2 9 10 42 47 31 22 14 23 0 0 0 0 0 0 0 0 0 0 0
289 143 78 84 47 68 37 4 0 2 0 4 2 17 20 19 44 17 2 12 3 0 0 4 8 5 1 15 3 21 17 0 0 0 0 0 0 0 0 0 0 0 0 0 0
152 81 149 88 58 43 5 0 0 3 3 31 25 20 25 30 15 37 6 5 0 0 0 0 0 0 0 0 0 7 28 0 0 0 0 0 0 0 0 0 0 0 0 0 0
29 45 53 66 15 0 1 10 10 4 5 2 16 6 1 16 25 33 30 0 2 0 0 0 3 0 0 0 1 23 2 15 17 11 1 0 0 0 0 0 0 0 0 0 0
21 21 47 10 0 0 11 7 2 2 1 5 2 17 1 6 2 7 0 0 0 0 0 0 11 0 0 2 0 4 16 4 9 0 0 0 0 0 0 0 0 0 0 0 0
39 7 36 10 3 3 10 7 0 2 0 4 10 9 14 2 29 11 0 0 0 0 0 0 1 0 0 0 0 0 0 4 2 0 0 0 0 0 0 0 0 0 0 0 0
0 3 6 22 34 12 3 0 0 0 1 4 2 7 12 23 50 9 0 0 0 0 7 8 1 1 5 0 0 0 0 0 3 0 0 1 0 0 0 0 0 0 0 0 0
18 2 2 11 12 0 0 0 0 0 0 0 0 0 9 19 8 0 2 0 0 0 21 21 0 0 0 0 0 0 0 0 2 24 0 0 0 0 0 0 0 0 0 0 0
12 1 0 5 1 0 0 0 0 1 9 0 0 0 0 3 12 8 0 1 7 3 47 27 1 0 0 0 0 0 0 0 31 0 1 0 0 0 0 0 0 0 0 0 0
0 0 0 0 0 0 0 0 0 0 2 0 0 0 1 0 0 3 0 28 0 0 40 18 0 0 0 0 0 0 0 0 0 0 15 0 0 0 0 0 0 0 0 0 0
0 0 0 0 0 4 1 0 0 0 0 0 0 1 2 0 0 0 6 1 4 0 15 59 18 4 0 0 0 36 0 0 0 0 0 2 0 0 0 0 0 0 0 0 0